Kosmos-1598

operational
NORAD ID: 15292 Int'l Des: 1984-100 Owner: VMF Country: SU
LEOCIRCULARPOLAR

About Kosmos-1598

Description loading...

Live Position

Loading 3D Globe...

Upcoming Passes

Altitude History

Altitude vs Time

uPlot chart will show altitude changes over time

Two-Line Element Set

1 15292U 84100A 26062.46588332 .00000060 00000-0 48901-4 0 9999
2 15292 82.9416 250.6276 0031649 324.8869 53.0266 13.73184862 77483
Epoch: Mar 3, 2026 • Age: 25 hours

Current Status

Altitude 973.9 km
Velocity 7.38 km/s
Sub-Earth Point -22.03°S, 70.88°E
Launch Date Sep 13, 1984
Age 41.4 years
Type other

Technical Details

Classification Payload
Mass 800.00 kg
Dry Mass 800.00 kg
Total Mass 800.00 kg
Length 5.00 m
Diameter 2.10 m
Span 17.00 m
Shape Cyl + Ant
Manufacturer OAZ
Bus Type KAUR-1 11F627
Phase Status In Orbit
Owner/State VMF/SU

Large Constellations

Loading constellations...